This is the latest recevied weather packets stored in our database for station/object DJ2DS-13. If no packets are shown the sender has not sent any weather packets the latest 10 day(s).
| Time | Temp. | Humidity | Pressure | Rain* | Wind** | Luminosity | Snow |
|---|---|---|---|---|---|---|---|
| 1777871278 | 10° C | 91% | 1011.1 hPa | 0 mm | - | 25 W/m² | - |
| 1777870978 | 10° C | 91% | 1011 hPa | 0 mm | - | 25 W/m² | - |
| 1777870677 | 9.44° C | 91% | 1011.2 hPa | 0 mm | - | 19 W/m² | - |
| 1777870378 | 10° C | 91% | 1011 hPa | 0 mm | - | 16 W/m² | - |
| 1777870077 | 10° C | 91% | 1010.9 hPa | 0 mm | - | 14 W/m² | - |
| 1777869774 | 9.44° C | 91% | 1010.9 hPa | 0 mm | - | 11 W/m² | - |
| 1777869474 | 9.44° C | 91% | 1010.9 hPa | 0 mm | - | 9 W/m² | - |
| 1777869175 | 9.44° C | 91% | 1010.8 hPa | 0 mm | - | 11 W/m² | - |
| 1777868875 | 9.44° C | 91% | 1010.8 hPa | 0 mm | - | 9 W/m² | - |
| 1777868573 | 10° C | 91% | 1010.8 hPa | 0 mm | - | 7 W/m² | - |
| 1777868272 | 10° C | 91% | 1010.7 hPa | 0 mm | - | 7 W/m² | - |
| 1777867973 | 10° C | 91% | 1010.6 hPa | 0 mm | - | 5 W/m² | - |
| 1777867670 | 10° C | 91% | 1010.6 hPa | 0 mm | - | 5 W/m² | - |
| 1777867370 | 10° C | 91% | 1010.6 hPa | 0 mm | - | 5 W/m² | - |
| 1777867071 | 10° C | 91% | 1010.5 hPa | 0 mm | - | 0 W/m² | - |
| 1777866769 | 10° C | 91% | 1010.5 hPa | 0 mm | - | 0 W/m² | - |
| 1777866468 | 10.56° C | 91% | 1010.4 hPa | 0 mm | - | 0 W/m² | - |
| 1777866166 | 10.56° C | 91% | 1010.5 hPa | 0 mm | - | 0 W/m² | - |
| 1777865866 | 10.56° C | 91% | 1010.4 hPa | 0 mm | - | 0 W/m² | - |
| 1777865566 | 10.56° C | 91% | 1010.4 hPa | 0 mm | - | 0 W/m² | - |
| 1777865264 | 10.56° C | 91% | 1010.5 hPa | 0 mm | - | 0 W/m² | - |
| 1777864964 | 10.56° C | 91% | 1010.4 hPa | 0 mm | - | 0 W/m² | - |
| 1777864664 | 10.56° C | 91% | 1010.4 hPa | 0 mm | - | 0 W/m² | - |
| 1777864362 | 10.56° C | 91% | 1010.3 hPa | 0 mm | - | 0 W/m² | - |
| 1777864062 | 10.56° C | 91% | 1010.3 hPa | 0 mm | - | 0 W/m² | - |
* Rain latest hour (hover to see other rain measurements)
** Current wind speed in m/s (hover to see current wind gust speed)